VE3GSI Weather Reports


time (UTC)temp
F
wind
direction
speed
knots
gust
knots
rain 1hr
in
rain 24hr
in
rain mn
in
humidity
%
barometer
mb
20260505212605 55 285 4.3 14.8 0.00 0.00 0.00 63 1004.9
20260505211605 57 268 5.2 14.8 0.00 0.00 0.00 58 1004.5
20260505205605 59 261 8.7 14.8 0.00 0.00 0.00 55 1004.1
20260505204606 59 276 6.1 12.2 0.00 0.00 0.00 57 1003.5
20260505202604 59 258 7.0 15.6 0.00 0.00 0.00 57 1003.2
20260505201605 60 263 6.1 17.4 0.00 0.00 0.00 60 1003.1
20260505200605 60 264 5.2 11.3 0.00 0.00 0.00 59 1002.7
20260505194605 60 271 6.1 10.4 0.00 0.00 0.00 62 1002.6
20260505193605 61 264 5.2 12.2 0.00 0.00 0.00 62 1002.5
20260505192605 61 258 7.8 13.0 0.00 0.00 0.00 62 1002.2
20260505191605 61 258 7.8 13.0 0.00 0.00 0.00 64 1002.2
20260505190605 61 247 6.1 14.8 0.00 0.00 0.00 65 1002.1
20260505185604 61 264 7.0 15.6 0.00 0.00 0.00 64 1002.3
20260505184605 61 293 6.1 13.9 0.00 0.00 0.00 66 1002.1
20260505183605 61 274 5.2 13.9 0.00 0.00 0.00 68 1002.1
20260505182605 61 261 5.2 10.4 0.00 0.00 0.00 70 1002.0
20260505180605 60 258 5.2 10.4 0.00 0.00 0.00 75 1001.6
20260505175605 60 243 5.2 13.9 0.00 0.00 0.00 75 1001.6
20260505172605 65 265 8.7 14.8 0.00 0.00 0.00 67 1001.2
20260505165605 69 232 10.4 20.9 0.00 0.00 0.00 64 1000.4
20260505164604 68 224 11.3 19.1 0.00 0.00 0.00 65 1000.5
20260505163604 67 228 7.0 15.6 0.00 0.00 0.00 68 1000.3
20260505162605 67 222 8.7 17.4 0.00 0.00 0.00 67 1000.6
20260505161604 68 215 9.6 20.9 0.00 0.00 0.00 64 1000.4
20260505160605 69 219 10.4 22.6 0.00 0.00 0.00 63 1000.4
20260505152605 69 227 10.4 25.2 0.00 0.00 0.00 64 999.1
20260505151605 68 217 5.2 13.9 0.00 0.00 0.00 65 999.3
20260505150605 67 212 7.8 18.2 0.00 0.00 0.00 67 999.2
20260505140604 63 234 10.4 18.2 0.00 0.00 0.00 73 999.1
20260505124606 60 219 4.3 10.4 0.00 0.00 0.00 80 998.7
20260505123604 59 210 3.5 10.4 0.00 0.00 0.00 81 998.8
20260505122605 59 216 4.3 11.3 0.00 0.00 0.00 81 998.8
20260505121605 59 215 6.1 11.3 0.00 0.00 0.00 81 998.9
20260505120604 59 213 6.1 14.8 0.00 0.00 0.00 82 998.7
20260505115605 58 212 4.3 10.4 0.00 0.00 0.00 83 998.5
20260505114605 57 199 4.3 8.7 0.00 0.00 0.00 83 998.5
20260505113605 57 232 4.3 8.7 0.00 0.00 0.00 84 998.6
20260505111605 56 187 4.3 10.4 0.00 0.00 0.00 84 998.6
20260505110605 56 200 4.3 11.3 0.00 0.00 0.00 85 998.4
20260505101604 54 238 4.3 7.8 0.00 0.01 0.00 87 998.3
20260505100605 54 206 2.6 4.3 0.00 0.01 0.00 85 998.3
20260505095604 55 188 1.7 6.1 0.00 0.01 0.00 83 998.1
20260505094605 55 204 2.6 4.3 0.00 0.01 0.00 82 998.1
20260505093605 56 208 2.6 7.0 0.00 0.01 0.00 82 998.0
20260505092604 57 224 1.7 5.2 0.00 0.01 0.00 80 998.0
20260505091604 57 200 3.5 8.7 0.00 0.01 0.00 79 998.1
20260505090604 58 222 5.2 8.7 0.00 0.01 0.00 79 998.1
20260505085604 58 222 3.5 10.4 0.00 0.01 0.00 79 998.1
20260505084604 58 228 5.2 17.4 0.00 0.01 0.00 79 998.3
20260505083605 58 181 5.2 7.8 0.00 0.01 0.00 78 998.2
20260505082605 58 199 4.3 7.8 0.00 0.01 0.00 77 998.4
20260505081604 58 227 5.2 12.2 0.00 0.01 0.00 77 998.4
20260505080604 58 200 7.8 11.3 0.00 0.01 0.00 76 998.4
20260505074604 58 218 6.1 13.0 0.00 0.01 0.00 75 998.5
20260505072604 58 215 5.2 13.9 0.00 0.01 0.00 76 998.7
20260505071604 57 209 5.2 10.4 0.00 0.01 0.00 76 998.7
20260505070605 56 216 5.2 10.4 0.00 0.01 0.00 76 998.7
20260505065605 55 210 6.1 11.3 0.00 0.01 0.00 78 998.7
20260505064604 53 212 4.3 7.0 0.00 0.01 0.00 78 998.6
20260505063604 52 200 2.6 6.1 0.00 0.01 0.00 76 998.7
20260505062605 52 206 1.7 5.2 0.00 0.01 0.00 75 998.6
20260505061604 52 196 1.7 4.3 0.00 0.01 0.00 73 998.5
20260505055605 53 207 0.9 4.3 0.00 0.01 0.00 71 998.6
20260505054604 54 197 0.9 4.3 0.00 0.01 0.00 71 998.8
20260505053604 53 212 0.9 4.3 0.00 0.01 0.00 72 998.8
20260505052604 52 212 2.6 4.3 0.00 0.01 0.00 72 998.9
20260505051605 52 181 1.7 4.3 0.00 0.01 0.00 73 999.0
20260505050604 52 189 1.7 6.1 0.00 0.01 0.00 73 999.3
20260505041604 53 203 0.9 4.3 0.00 0.02 0.00 69 999.4
20260505040604 53 189 1.7 2.6 0.00 0.02 0.00 68 999.4
20260505035604 53 187 0.9 6.1 0.00 0.02 0.02 68 999.6
20260505034604 54 197 1.7 4.3 0.00 0.02 0.02 66 999.6
20260505033604 55 229 0.9 2.6 0.00 0.02 0.02 65 999.6
20260505032604 55 216 0.9 2.6 0.00 0.02 0.02 63 999.7
20260505031604 56 215 1.7 6.1 0.00 0.02 0.02 63 999.8
20260505030604 56 216 3.5 5.2 0.00 0.02 0.02 62 999.9
20260505025605 56 230 2.6 5.2 0.00 0.02 0.02 61 999.9
20260505023604 57 219 2.6 5.2 0.00 0.02 0.02 61 1000.0
20260505022605 56 229 2.6 7.8 0.00 0.02 0.02 62 1000.0
20260505020604 55 215 2.6 6.1 0.00 0.02 0.02 64 1000.0
20260505015605 56 209 1.7 4.3 0.00 0.02 0.02 63 1000.2
20260505014604 56 214 1.7 4.3 0.00 0.02 0.02 63 1000.1
20260505013604 56 200 2.6 4.3 0.00 0.02 0.02 62 1000.1
20260505012604 57 193 1.7 2.6 0.00 0.02 0.02 61 1000.1
20260505011604 59 214 1.7 4.3 0.00 0.02 0.02 59 1000.2
20260505005604 60 218 3.5 7.0 0.00 0.02 0.02 56 1000.1
20260505004605 61 212 4.3 7.0 0.00 0.02 0.02 55 1000.0
20260505003604 62 209 4.3 8.7 0.00 0.02 0.02 54 1000.1
20260505002604 63 209 5.2 10.4 0.00 0.02 0.02 53 1000.2
20260505000604 64 234 7.0 13.0 0.00 0.02 0.02 52 1000.3
20260504235604 64 218 5.2 14.8 0.00 0.02 0.02 51 1000.2
20260504234604 65 227 5.2 12.2 0.00 0.02 0.02 51 1000.0
20260504233604 65 219 6.1 11.3 0.00 0.02 0.02 52 1000.0
20260504232605 65 209 6.1 10.4 0.00 0.02 0.02 51 999.9
20260504231603 66 214 6.1 10.4 0.00 0.02 0.02 51 999.9
20260504230604 67 199 6.1 13.9 0.00 0.02 0.02 51 999.9
20260504225604 67 226 6.1 13.0 0.00 0.02 0.02 50 1000.0
20260504223607 68 211 7.8 14.8 0.00 0.02 0.02 50 1000.0
20260504222605 68 212 11.3 20.0 0.00 0.02 0.02 49 1000.1
20260504221605 69 212 9.6 17.4 0.00 0.02 0.02 49 1000.2
20260504220606 69 198 7.0 14.8 0.00 0.02 0.02 49 1000.3
20260504215605 69 220 10.4 17.4 0.00 0.02 0.02 47 1000.2
20260504214605 71 204 10.4 18.2 0.00 0.02 0.02 46 1000.3
20260504213606 71 217 7.8 18.2 0.00 0.02 0.02 48 1000.5